Other Surface Observations
Issued by NWS Charleston, SC

Home | Current Version | Previous Version | Text Only | Print | Product List | Glossary On
Versions: 1 2 3 4 5 6 7 8 9 10 11 12 13 14 15 16 17 18 19 20 21 22 23 24 25 26 27 28 29 30 31 32 33 34 35 36 37 38 39 40 41 42 43 44 45 46 47 48 49 50
000
SXUS52 KCHS 222225
OSOCHS

MARINE OBSERVATIONS
NATIONAL WEATHER SERVICE CHARLESTON SC
600 PM EDT TUE JUL 22 2014

...DOWNTOWN CHARLESTON AND HARBOR...

CITY           SKY/WX    TMP DP  RH WIND       PRES   REMARKS
WATERFRONT PRK   N/A     82 N/A N/A E9          N/A
FORT JOHNSON   NOT AVBL

...LAKE MOULTRIE...

CITY           SKY/WX    TMP DP  RH WIND       PRES   REMARKS
PINOPOLIS        N/A     86  75  70 NE3       29.98F HX  95

...LAKE AND SUPPLEMENTAL COASTAL OBSERVATIONS...

STATION/POSITION TIME  TEMP    WIND        PRES    WAVE   SWELL
                       AIR SEA DIR/SP/G            HT/PER HT/PER/DIR
                 (UTC) (F)     (DEG/KT/KT) (MB)    (FT/S) (FT/S/D)
FORT PULASKI     2200   83     110/  9/ 11 1017.6F
SAPELO ISLAND    2100   88      90/  9     1018.0S
UPR LAKE MARION  NOT AVBL
WINYAH BAY       2200   82      90/  5     1018.0S
LAKE MURRAY      2200   83      10/  2/  4 1017.3S
ACE BASIN NERRS  2200   85     150/  3     1018.0S


...C-MAN AND BUOY OBSERVATIONS...

STATION/POSITION TIME  TEMP    WIND        PRES    WAVE   SWELL
                       AIR SEA DIR/SP/G            HT/PER HT/PER/DIR
                 (UTC) (F)     (DEG/KT/KT) (MB)    (FT/S) (FT/S/D)
BUOY 41004       2200   79 82  140/  6/  8 1017.6R   3/ 8   2/ 8
BUOY 41008       2200   81 85  110/ 10/ 12 1017.3F   2/ 7   2/120/ 7
FOLLY BEACH CMAN 2200   81     130/  6/  8 1018.2F
CAPERS NS BUOY   NOT AVBL
FRIPP NS BUOY    NOT AVBL
5E ST. MARYS GA  2200      85                N/A     2/ 7
FRYING PAN BUOY  NOT AVBL
BUOY 41025       2200          VRB 16/ 17  1019.1F   4/ 7   2/130/ 8
CAPE LOOKOUT NC  2200   79     180/ 15/ 16 1019.0F
BUOY 41002       2055   82 83  190/ 12/ 14 1021.4    3/ 8   3/130/ 8
BUOY 41010       2200   81 83  160/ 14/ 16 1018.0F   5/ 6   2/130/ 7
BUOY 41012       NOT AVBL
ST AUGUSTINE FL  2200   82     110/ 10/ 11 1018.5R


$$



USA.gov is the U.S. government's official web portal to all federal, state and local government web resources and services.